Onweer radar Meer informatie blitzortung!


Regen radar Meer informatie rain snow radar


Bezoek onze andere website:

Template documentation
and downloads

And another site



15 daagse weersverwachting Genoa (IT)

  • Overzicht
  • Per uur
  • 15 dagen
  • Extra
  • Vergelijk
  • Kaarten
  • Dagkaart
  • Meer »
  • Info
  • Statistieken
  • Directe link
    Temp 6h Neerslag Wind  
 07:26     16:54    Daglengte: 9:28 Vandaag
13:00
11°
 
4
19:00
9.0 mm
9
 07:27     16:53    Daglengte: 9:26 Morgen
01:00
43.9 mm
11
07:00
57.0 mm
11
13:00
10°
61.0 mm
9
19:00
10°
54.2 mm
8
 07:28     16:52    Daglengte: 9:24 Woensdag 20 Nov
01:00
10°
43.2 mm
6
07:00
10°
9.2 mm
7
13:00
12°
 
6
19:00
11°
 
6
 07:30     16:52    Daglengte: 9:22 Donderdag 21 Nov
01:00
11°
19.3 mm
4
07:00
11°
93.2 mm
2
Locatie info
Region: Liguria
Latitude: 44.4264°N
Longitude: 8.9152°E
126 masl
Temp/Neerslag /Baro Onweer/Dauwpunt
    Temp Baro 1h Neerslag Dauwpunt Wind UV Bewolking  
 07:26     16:54    Daglengte: 9:28 Vandaag
10:00
10°
1011.6 hPa
48%
6.6°
3
Windvlaag: -2.7 m/s
74%
11:00
11°
1011.7 hPa
61%
6.2°
3
Windvlaag: -3.2 m/s
77%
12:00
11°
1011.8 hPa
22%
6.1°
3
Windvlaag: -3.6 m/s
81%
13:00
11°
1011.7 hPa
33%
6.5°
4
Windvlaag: -3.8 m/s
91%
14:00
11°
1011.8 hPa 0.2 mm
78%
6.8°
4
Windvlaag: -4.2 m/s
91%
15:00
10°
Voelt als: 7.1°
1012.0 hPa 1.0 mm
82%
7.1°
6
Windvlaag: -4 m/s
91%
16:00
Voelt als: 6.3°
1012.2 hPa 1.6 mm
82%
6.8°
7
Windvlaag: -3.9 m/s
91%
17:00
Voelt als: 6.0°
1012.0 hPa 1.7 mm
82%
6.8°
7
Windvlaag: -4.3 m/s
91%
18:00
Voelt als: 5.8°
1011.9 hPa 2.0 mm
82%
6.7°
8
Windvlaag: -5 m/s
91%
19:00
Voelt als: 5.5°
1011.5 hPa 2.4 mm
82%
6.8°
9
Windvlaag: -4.9 m/s
91%
20:00
Voelt als: 5.2°
1011.1 hPa 3.6 mm
82%
7.1°
9
Windvlaag: -5.1 m/s
91%
21:00
Voelt als: 5.3°
1010.9 hPa 5.1 mm
82%
7.0°
9
Windvlaag: -5.6 m/s
91%
22:00
Voelt als: 5.0°
1010.7 hPa 7.4 mm
82%
7.1°
10
Windvlaag: -5.6 m/s
91%
23:00
Voelt als: 4.7°
1010.7 hPa 8.5 mm
82%
6.9°
11
Windvlaag: -5.8 m/s
91%
 07:27     16:53    Daglengte: 9:26 Morgen
00:00
Voelt als: 4.3°
1010.6 hPa 9.8 mm
82%
6.5°
10
Windvlaag: -6.1 m/s
91%
01:00
Voelt als: 4.3°
1010.5 hPa 9.6 mm
82%
6.7°
11
Windvlaag: -5.8 m/s
91%
02:00
Voelt als: 4.6°
1010.3 hPa 9.9 mm
82%
7.4°
10
Windvlaag: -5.8 m/s
91%
03:00
Voelt als: 4.6°
1010.1 hPa 9.9 mm
82%
7.3°
10
Windvlaag: -5 m/s
89%
04:00
Voelt als: 4.0°
1009.8 hPa 9.5 mm
82%
7.0°
11
Windvlaag: -5.6 m/s
86%
05:00
Voelt als: 3.6°
1009.5 hPa 9.5 mm
82%
6.8°
11
Windvlaag: -6.3 m/s
87%
06:00
Voelt als: 3.5°
1009.6 hPa 9.0 mm
82%
6.7°
11
Windvlaag: -6.8 m/s
86%
07:00
Voelt als: 3.5°
1009.6 hPa 9.2 mm
82%
6.7°
11
Windvlaag: -7.3 m/s
87%
08:00
Voelt als: 4.0°
1010.0 hPa 9.2 mm
82%
6.7°
10
Windvlaag: -7.1 m/s
87%
09:00
Voelt als: 4.5°
1010.5 hPa 9.7 mm
82%
6.7°
9
Windvlaag: -6.7 m/s
88%
10:00
Voelt als: 4.9°
1010.7 hPa 9.7 mm
82%
6.5°
9
Windvlaag: -6.3 m/s
90%
11:00
Voelt als: 5.4°
1010.8 hPa 9.8 mm
82%
6.6°
9
Windvlaag: -6.4 m/s
90%
12:00
Voelt als: 5.6°
1010.3 hPa 11.1 mm
82%
6.6°
10
Windvlaag: -6.4 m/s
86%
13:00
10°
Voelt als: 5.8°
1010.4 hPa 11.6 mm
82%
6.9°
9
Windvlaag: -6.3 m/s
84%
14:00
10°
Voelt als: 5.7°
1010.4 hPa 11.0 mm
82%
7.3°
10
Windvlaag: -5.7 m/s
84%
15:00
10°
Voelt als: 6.2°
1010.4 hPa 10.5 mm
82%
7.6°
8
Windvlaag: -5.8 m/s
86%
16:00
10°
Voelt als: 6.4°
1010.6 hPa 8.9 mm
82%
7.8°
8
Windvlaag: -5.7 m/s
85%
17:00
10°
Voelt als: 6.4°
1010.5 hPa 8.3 mm
82%
8.0°
9
Windvlaag: -5.7 m/s
85%
18:00
10°
1010.9 hPa 8.0 mm
82%
8.4°
9
Windvlaag: -5.8 m/s
85%
19:00
10°
1011.3 hPa 7.6 mm
82%
8.5°
8
Windvlaag: -5.8 m/s
85%
20:00
10°
1011.7 hPa 7.3 mm
82%
8.4°
8
Windvlaag: -5.8 m/s
86%
21:00
10°
1011.8 hPa 7.5 mm
82%
8.4°
7
Windvlaag: -5.6 m/s
87%
22:00
11°
1012.0 hPa 7.1 mm
81%
8.7°
7
Windvlaag: -5.3 m/s
88%
23:00
11°
1012.1 hPa 7.1 mm
82%
9.2°
6
Windvlaag: -5.2 m/s
86%
 07:28     16:52    Daglengte: 9:24 Woensdag 20 Nov
00:00
11°
1012.2 hPa 7.1 mm
82%
9.0°
6
Windvlaag: -4.9 m/s
86%
01:00
10°
1012.2 hPa 7.1 mm
82%
9.0°
6
Windvlaag: -4.6 m/s
86%
02:00
11°
1012.3 hPa
82%
8.9°
6
Windvlaag: -4.7 m/s
84%
03:00
11°
1012.2 hPa 9.2 mm
82%
8.7°
6
Windvlaag: -4.6 m/s
68%
04:00
10°
1012.1 hPa
100%
9.2°
7
Windvlaag: -4.6 m/s
77%
05:00
10°
1012.1 hPa
99%
9.0°
7
Windvlaag: -4.9 m/s
83%
06:00
10°
Voelt als: 6.7°
1012.2 hPa
99%
9.0°
7
Windvlaag: -5.1 m/s
77%
07:00
10°
Voelt als: 6.8°
1012.4 hPa
100%
9.1°
7
Windvlaag: -5.2 m/s
64%
08:00
10°
Voelt als: 6.8°
1012.8 hPa
100%
9.1°
7
Windvlaag: -5 m/s
46%
09:00
10°
1013.1 hPa
98%
9.1°
7
Windvlaag: -4.8 m/s
30%
10:00
11°
1013.2 hPa
91%
9.2°
7
Windvlaag: -4.9 m/s
31%
11:00
12°
1013.4 hPa
90%
9.0°
7
Windvlaag: -5.1 m/s
49%
12:00
12°
1013.1 hPa
81%
8.9°
6
Windvlaag: -5.1 m/s
46%
13:00
12°
1012.7 hPa
69%
8.9°
6
Windvlaag: -5.1 m/s
38%
14:00
13°
1012.4 hPa
25%
9.1°
6
Windvlaag: -5.3 m/s
38%
15:00
12°
1012.3 hPa
27%
9.4°
6
Windvlaag: -5.4 m/s
38%
16:00
12°
1012.4 hPa
34%
9.7°
6
Windvlaag: -5.3 m/s
32%
17:00
11°
1012.4 hPa
35%
9.9°
6
Windvlaag: -5.3 m/s
39%
18:00
11°
1012.5 hPa
42%
9.9°
6
Windvlaag: -5 m/s
45%
19:00
11°
1012.6 hPa
43%
9.6°
6
Windvlaag: -4.7 m/s
67%
20:00
10°
1012.7 hPa
91%
9.4°
6
Windvlaag: -4.8 m/s
71%
21:00
10°
1013.0 hPa
95%
9.2°
5
Windvlaag: -4.7 m/s
84%
22:00
11°
1013.1 hPa
100%
9.4°
5
Windvlaag: -4.5 m/s
98%
23:00
11°
1013.1 hPa 9.6 mm
100%
9.5°
4
Windvlaag: -4 m/s
93%
 07:30     16:52    Daglengte: 9:22 Donderdag 21 Nov
00:00
11°
1013.0 hPa
56%
9.5°
3
Windvlaag: -3.3 m/s
93%
01:00
11°
1012.7 hPa 9.7 mm
46%
9.6°
4
Windvlaag: -2.6 m/s
96%
02:00
11°
1012.3 hPa 15.6 mm
45%
9.7°
3
Windvlaag: 0.8 m/s
81%
03:00
11°
1012.1 hPa 15.6 mm
46%
10.1°
2
Windvlaag: 0.8 m/s
97%
04:00
11°
1011.9 hPa 15.5 mm
88%
9.5°
3
Windvlaag: 0.6 m/s
97%
05:00
10°
1011.9 hPa 15.5 mm
92%
9.4°
2
Windvlaag: 0.4 m/s
95%
06:00
10°
1012.1 hPa 15.5 mm
92%
9.4°
2
Windvlaag: 0.2 m/s
94%
07:00
11°
1012.4 hPa 15.4 mm
87%
9.6°
2
Windvlaag: 0.3 m/s
98%
08:00
11°
1012.2 hPa 46.2 mm
100%
10.0°
2
Windvlaag: 3.2 m/s
99%
09:00
11°
1012.4 hPa 48.5 mm
100%
10.2°
2
Windvlaag: 4.1 m/s
99%
Temp/Neerslag /Baro Onweer/Dauwpunt
    Temp Baro Neerslag Dauwpunt Wind Bewolking  
 07:26     16:54    Daglengte: 9:28 Vandaag
10:00
10°
1011.6 hPa   6.6°
3
74%
13:00
11°
1011.7 hPa   6.5°
4
91%
16:00
Voelt als: 6.3°
1012.2 hPa 2.8 mm 6.8°
7
91%
19:00
Voelt als: 5.5°
1011.5 hPa 6.2 mm 6.8°
9
91%
22:00
Voelt als: 5.0°
1010.7 hPa 16.0 mm 7.1°
10
91%
 07:27     16:53    Daglengte: 9:26 Morgen
01:00
Voelt als: 4.3°
1010.5 hPa 27.9 mm 6.7°
11
91%
04:00
Voelt als: 4.0°
1009.8 hPa 29.3 mm 7.0°
11
86%
07:00
Voelt als: 3.5°
1009.6 hPa 27.7 mm 6.7°
11
87%
10:00
Voelt als: 4.9°
1010.7 hPa 28.6 mm 6.5°
9
90%
13:00
10°
Voelt als: 5.8°
1010.4 hPa 32.4 mm 6.9°
9
84%
16:00
10°
Voelt als: 6.4°
1010.6 hPa 30.4 mm 7.8°
8
85%
19:00
10°
1011.3 hPa 23.9 mm 8.5°
8
85%
22:00
11°
1012.0 hPa 21.9 mm 8.7°
7
88%
 07:28     16:52    Daglengte: 9:24 Woensdag 20 Nov
01:00
10°
1012.2 hPa 21.3 mm 9.0°
6
86%
04:00
10°
1012.1 hPa 9.2 mm 9.2°
7
77%
07:00
10°
Voelt als: 6.8°
1012.4 hPa   9.1°
7
64%
10:00
11°
1013.2 hPa   9.2°
7
31%
13:00
12°
1012.7 hPa   8.9°
6
38%
16:00
12°
1012.4 hPa   9.7°
6
32%
19:00
11°
1012.6 hPa   9.6°
6
67%
22:00
11°
1013.1 hPa   9.4°
5
98%
 07:30     16:52    Daglengte: 9:22 Donderdag 21 Nov
01:00
11°
1012.7 hPa 19.3 mm 9.6°
4
96%
04:00
11°
1011.9 hPa 46.7 mm 9.5°
3
97%
07:00
11°
1012.4 hPa 46.5 mm 9.6°
2
98%
10:00
11°
1012.6 hPa 148.8 mm 10.1°
3
99%
13:00
12°
1012.8 hPa 176.5 mm 10.5°
3
94%
16:00
12°
1013.3 hPa 118.6 mm 10.5°
3
90%
19:00
11°
1013.4 hPa 119.2 mm 10.3°
3
89%
22:00
11°
1013.5 hPa 119.8 mm 10.4°
4
87%
 07:31     16:51    Daglengte: 9:20 Vrijdag 22 Nov
01:00
11°
1013.5 hPa 121.0 mm 10.6°
5
85%
04:00
11°
1013.0 hPa 123.4 mm 10.0°
4
87%
07:00
11°
1012.7 hPa 124.6 mm 9.5°
3
88%
10:00
12°
1012.4 hPa 125.3 mm 9.4°
3
90%
13:00
12°
1011.9 hPa 126.2 mm 9.2°
4
92%
16:00
12°
1011.4 hPa 127.8 mm 10.4°
4
91%
19:00
11°
1010.9 hPa 129.7 mm 11.6°
4
90%
22:00
11°
1010.2 hPa 131.3 mm 11.1°
5
91%
 07:32     16:50    Daglengte: 9:18 Zaterdag 23 Nov
01:00
11°
1009.4 hPa 133.2 mm 10.7°
6
92%
04:00
12°
1007.8 hPa 137.7 mm 11.3°
8
91%
07:00
12°
1006.2 hPa 141.8 mm 12.0°
10
90%
10:00
13°
1006.3 hPa 146.1 mm 12.1°
10
91%
13:00
14°
1006.3 hPa 154.2 mm 12.1°
9
92%
16:00
14°
1006.9 hPa 165.1 mm 11.3°
7
81%
19:00
14°
1007.6 hPa 168.7 mm 10.5°
4
71%
22:00
13°
1009.0 hPa 169.4 mm 10.4°
6
79%
 07:33     16:49    Daglengte: 9:16 Zondag 24 Nov
01:00
13°
1010.2 hPa 169.5 mm 10.3°
8
87%
04:00
13°
1010.7 hPa 169.5 mm 10.7°
9
88%
07:00
13°
1011.2 hPa 169.5 mm 11.1°
10
89%
10:00
14°
1011.7 hPa 169.5 mm 11.3°
11
45%
13:00
16°
1012.0 hPa 169.5 mm 11.4°
11
1%
16:00
15°
1012.4 hPa 169.5 mm 10.9°
10
1%
19:00
14°
1012.9 hPa 169.5 mm 10.2°
9
1%
22:00
13°
1013.1 hPa 169.5 mm 10.2°
9
1%
 07:35     16:49    Daglengte: 9:14 Maandag 25 Nov
01:00
12°
1013.2 hPa 169.5 mm 10.1°
8
1%
04:00
12°
1012.8 hPa 169.5 mm 10.0°
8
11%
07:00
12°
1012.5 hPa 339.1 mm 9.8°
7
21%
13:00
17°
1012.4 hPa 339.1 mm 9.9°
6
0%
19:00
13°
1013.6 hPa 339.2 mm 10.1°
7
0%
 07:36     16:48    Daglengte: 9:12 Dinsdag 26 Nov
01:00
12°
1014.0 hPa 339.9 mm 9.4°
6
0%
07:00
11°
1014.6 hPa 344.0 mm 9.1°
5
0%
13:00
16°
1015.0 hPa 347.4 mm 8.4°
2
0%
19:00
12°
1014.8 hPa 355.2 mm 10.4°
7
0%
 07:37     16:48    Daglengte: 9:11 Woensdag 27 Nov
01:00
11°
1015.5 hPa 365.7 mm 9.9°
5
29%
07:00
10°
1015.8 hPa 367.0 mm 10.5°
4
90%
13:00
15°
1016.5 hPa 367.0 mm 11.7°
3
37%
19:00
13°
1017.3 hPa 367.0 mm 10.0°
1
74%
 07:38     16:47    Daglengte: 9:09 Donderdag 28 Nov
01:00
12°
1017.7 hPa 367.0 mm 11.4°
3
92%
07:00
13°
1010.7 hPa 2.0 mm 11.3°
1
67%
13:00
15°
1011.5 hPa 2.1 mm 12.2°
0
64%
19:00
14°
1013.0 hPa 1.8 mm 11.8°
1
65%
 07:39     16:47    Daglengte: 9:08 Vrijdag 29 Nov
01:00
13°
1014.4 hPa 2.1 mm 11.4°
0
62%
07:00
13°
1014.9 hPa 1.3 mm 11.1°
0
58%
13:00
15°
1014.9 hPa 0.6 mm 12.3°
0
51%
19:00
14°
1015.2 hPa 0.4 mm 11.5°
0
47%
 07:40     16:46    Daglengte: 9:06 Zaterdag 30 Nov
01:00
13°
1015.9 hPa 0.8 mm 10.6°
1
49%
07:00
12°
1016.4 hPa 0.7 mm 10.0°
1
53%
13:00
15°
1016.8 hPa 0.8 mm 11.2°
1
52%
19:00
13°
1017.3 hPa 1.0 mm 11.0°
0
50%
 07:42     16:46    Daglengte: 9:04 Zondag 01 Dec
01:00
13°
1017.6 hPa 0.9 mm 10.0°
1
54%
07:00
12°
1017.7 hPa 0.5 mm 9.1°
1
45%
13:00
15°
1017.7 hPa 0.4 mm 10.6°
1
45%
19:00
13°
1017.8 hPa 0.4 mm 10.0°
1
47%
 07:43     16:46    Daglengte: 9:03 Maandag 02 Dec
01:00
12°
1017.3 hPa 0.6 mm 9.8°
0
52%
07:00
12°
1016.5 hPa 0.4 mm 9.2°
1
45%
13:00
14°
1016.0 hPa 0.3 mm 10.1°
1
46%
19:00
12°
1016.3 hPa 0.3 mm 9.1°
1
47%
 07:44     16:45    Daglengte: 9:01 Dinsdag 03 Dec
01:00
12°
1016.7 hPa 0.7 mm 8.4°
2
46%
07:00
11°
1016.9 hPa 0.6 mm 7.7°
2
40%
  CAPE Lifted Index Hail Supercell Tornado SRH 3km CL BTM PRES CL TOP PRES Swiss DWD icon SMHI TS
 07:26     16:54    Daglengte: 9:28 Vandaag
10:00 2 J/kg 3.5 K 0 % 0 % 0 % 0 m²/s² 0 0 7.85 3
11:00 0 J/kg 3.8 K 0 % 0 % 0 % 0 m²/s² 0 0 7.1 3
12:00 0 J/kg 3.8 K 0 % 0 % 0 % 0 m²/s² 0 0 6.17 3
13:00 1 J/kg 4.3 K 0 % 0 % 0 % 0 m²/s² 0 0 5.05 3
14:00 5 J/kg 4.5 K 0 % 0 % 0 % 0 m²/s² 0 0 4.89 80
15:00 3 J/kg 4.7 K 0 % 0 % 0 % 0 m²/s² 0 0 5.03 61
16:00 0 J/kg 4.7 K 0 % 0 % 0 % 0 m²/s² 0 0 4.94 61
17:00 1 J/kg 5.1 K 0 % 0 % 0 % 0 m²/s² 0 0 5.37 61
18:00 0 J/kg 4.1 K 0 % 0 % 0 % 0 m²/s² 0 0 4.31 61
19:00 0 J/kg 3.8 K 0 % 0 % 0 % 0 m²/s² 0 0 4.01 61
20:00 0 J/kg 2.8 K 0 % 0 % 0 % 0 m²/s² 0 0 2.95 61
21:00 0 J/kg 4.1 K 0 % 0 % 0 % 0 m²/s² 0 0 4.22 63
22:00 0 J/kg 3.5 K 0 % 0 % 0 % 0 m²/s² 0 0 3.74 63
23:00 0 J/kg 3.5 K 0 % 0 % 0 % 0 m²/s² 0 0 3.83 63
 07:27     16:53    Daglengte: 9:26 Morgen
00:00 0 J/kg 2.4 K 0 % 0 % 0 % 0 m²/s² 0 0 2.55 63
01:00 0 J/kg 0.5 K 0 % 0 % 0 % 0 m²/s² 0 0 0.62 63
02:00 0 J/kg -0.1 K 0 % 0 % 0 % 0 m²/s² 0 0 0.2 63
03:00 0 J/kg 0.5 K 0 % 0 % 0 % 0 m²/s² 0 0 1.31 63
04:00 0 J/kg 1.4 K 0 % 0 % 0 % 0 m²/s² 0 0 2.54 63
05:00 0 J/kg 1.8 K 0 % 0 % 0 % 0 m²/s² 0 0 2.79 63
06:00 0 J/kg 1.7 K 0 % 0 % 0 % 0 m²/s² 0 0 2.54 63
07:00 0 J/kg 2.0 K 0 % 0 % 0 % 0 m²/s² 0 0 3.35 63
08:00 0 J/kg 2.1 K 0 % 0 % 0 % 0 m²/s² 0 0 3.72 63
09:00 0 J/kg 2.2 K 0 % 0 % 0 % 0 m²/s² 0 0 3.7 63
10:00 0 J/kg 2.5 K 0 % 0 % 0 % 0 m²/s² 0 0 4 63
11:00 0 J/kg 3.4 K 0 % 0 % 0 % 0 m²/s² 0 0 5.5 63
12:00 0 J/kg 4.0 K 0 % 0 % 0 % 0 m²/s² 0 0 6.37 63
13:00 0 J/kg 3.6 K 0 % 0 % 0 % 0 m²/s² 0 0 6.54 63
14:00 0 J/kg 3.9 K 0 % 0 % 0 % 0 m²/s² 0 0 8.13 63
15:00 0 J/kg 3.7 K 0 % 0 % 0 % 0 m²/s² 0 0 9.67 63
16:00 29 J/kg 2.9 K 0 % 0 % 0 % 0 m²/s² 0 0 9.89 61
17:00 40 J/kg 2.2 K 0 % 0 % 0 % 0 m²/s² 0 0 8.95 61
18:00 42 J/kg 1.8 K 0 % 0 % 0 % 0 m²/s² 0 0 8.34 61
19:00 39 J/kg 1.4 K 0 % 0 % 0 % 0 m²/s² 0 0 7.55 61
20:00 51 J/kg 1.1 K 0 % 0 % 0 % 0 m²/s² 0 0 7.07 61
21:00 58 J/kg 0.5 K 0 % 0 % 0 % 0 m²/s² 0 0 6.65 61
22:00 63 J/kg 0.9 K 0 % 0 % 0 % 0 m²/s² 0 0 7.05 61
23:00 40 J/kg 1.3 K 0 % 0 % 0 % 0 m²/s² 0 0 7.24 61
 07:28     16:52    Daglengte: 9:24 Woensdag 20 Nov
00:00 36 J/kg 1.4 K 0 % 0 % 0 % 0 m²/s² 0 0 7.34 61
01:00 27 J/kg 1.3 K 0 % 0 % 0 % 0 m²/s² 0 0 7.24 61
02:00 40 J/kg 0.9 K 0 % 0 % 0 % 0 m²/s² 0 0 6.48 3
03:00 39 J/kg 0.5 K 0 % 0 % 0 % 0 m²/s² 0 0 5.78 61
04:00 63 J/kg 0.3 K 0 % 0 % 0 % 0 m²/s² 0 0 5.46 61
05:00 66 J/kg 0.0 K 0 % 0 % 0 % 0 m²/s² 0 0 4.41 61
06:00 38 J/kg 0.2 K 0 % 0 % 0 % 0 m²/s² 0 0 4.28 3
07:00 22 J/kg 0.8 K 0 % 0 % 0 % 0 m²/s² 0 0 4.67 61
08:00 0 J/kg 2.2 K 0 % 0 % 0 % 0 m²/s² 0 0 6.49 61
09:00 3 J/kg 4.2 K 0 % 0 % 0 % 0 m²/s² 0 0 8.49 61
10:00 1 J/kg 5.9 K 0 % 0 % 0 % 0 m²/s² 0 0 10.19 3
11:00 28 J/kg 6.5 K 0 % 0 % 0 % 0 m²/s² 0 0 10.67 3
12:00 32 J/kg 7.3 K 0 % 0 % 0 % 0 m²/s² 0 0 11.08 3
13:00 42 J/kg 8.0 K 0 % 0 % 0 % 0 m²/s² 0 0 12.41 2
14:00 58 J/kg 8.1 K 0 % 0 % 0 % 0 m²/s² 0 0 13.71 2
15:00 58 J/kg 8.0 K 0 % 0 % 0 % 0 m²/s² 0 0 14.15 3
16:00 109 J/kg 7.2 K 0 % 0 % 0 % 0 m²/s² 0 0 14.49 3
17:00 103 J/kg 7.0 K 0 % 0 % 0 % 0 m²/s² 0 0 13.81 3
18:00 92 J/kg 7.2 K 0 % 0 % 0 % 0 m²/s² 0 0 13.41 3
19:00 49 J/kg 7.9 K 0 % 0 % 0 % 0 m²/s² 0 0 14.98 3
20:00 5 J/kg 9.0 K 0 % 0 % 0 % 0 m²/s² 0 0 17.22 3
21:00 12 J/kg 8.8 K 0 % 0 % 0 % 0 m²/s² 0 0 17.74 3
22:00 16 J/kg 7.9 K 0 % 0 % 0 % 0 m²/s² 0 0 18.79 80
23:00 7 J/kg 7.8 K 0 % 0 % 0 % 0 m²/s² 0 0 19.32 3
 07:30     16:52    Daglengte: 9:22 Donderdag 21 Nov
00:00 13 J/kg 7.8 K 0 % 0 % 0 % 0 m²/s² 0 0 19.26 3
01:00 15 J/kg 7.4 K 0 % 0 % 0 % 0 m²/s² 0 0 18.86 45
02:00 30 J/kg 6.5 K 0 % 0 % 0 % 0 m²/s² 0 0 17.93 45
03:00 29 J/kg 5.7 K 0 % 0 % 0 % 0 m²/s² 0 0 13.83 3
04:00 23 J/kg 5.5 K 0 % 0 % 0 % 0 m²/s² 0 0 11.11 3
05:00 13 J/kg 5.0 K 0 % 0 % 0 % 0 m²/s² 0 0 8.9 80
06:00 8 J/kg 4.5 K 0 % 0 % 0 % 0 m²/s² 0 0 7.35 80
07:00 11 J/kg 4.0 K 0 % 0 % 0 % 0 m²/s² 0 0 6.19 80
08:00 4 J/kg 3.1 K 0 % 0 % 0 % 0 m²/s² 0 0 4.63
09:00 8 J/kg 2.1 K 0 % 0 % 0 % 0 m²/s² 0 0 2.58
Temp Baro Wind Neerslag
  EWN Forecast EWN WRFDA DWD ICON FMI HIRLAM MET Norway GFS
 07:26     16:54    Daglengte: 9:28 Vandaag
10:00 10.2° 1011.6 hPa 3.1 m/s 0.0 mm 10.5° 1008.5 hPa 0.5 m/s 0.1 mm 9.6° 1012.3 hPa 1.7 m/s -1.9 mm 11.1° 1010.9 hPa 2.3 m/s 0.0 mm 10.2° 1011.8 hPa 4.0 m/s 0.0 mm 9.3° 1012.0 hPa 1.4 m/s
13:00 11.2° 1011.7 hPa 3.7 m/s 0.0 mm 11.9° 1009.0 hPa 0.7 m/s 0.2 mm 11.2° 1011.6 hPa 1.3 m/s 0.0 mm 12.4° 1011.2 hPa 0.8 m/s 0.0 mm 10.5° 1012.0 hPa 6.2 m/s 0.0 mm 10.2° 1012.1 hPa 1.9 m/s
16:00 9.4° 1012.2 hPa 6.6 m/s 2.8 mm 9.7° 1007.9 hPa 5.7 m/s 5.2 mm 9.0° 1012.4 hPa 2.6 m/s 3.2 mm 11.1° 1011.5 hPa 5.5 m/s 0.0 mm 9.2° 1012.5 hPa 8.3 m/s 3.1 mm 8.4° 1011.4 hPa 4.5 m/s
19:00 9.2° 1011.5 hPa 8.6 m/s 6.2 mm 9.6° 1006.1 hPa 7.7 m/s 19.5 mm 8.7° 1012.1 hPa 3.5 m/s 2.8 mm 10.6° 1011.8 hPa 7.0 m/s 0.0 mm 9.1° 1011.1 hPa 11.3 m/s 5.5 mm 7.4° 1011.8 hPa 5.9 m/s
22:00 9.1° 1010.7 hPa 10.0 m/s 16.0 mm 8.7° 1005.8 hPa 9.9 m/s 55.8 mm 8.5° 1012.7 hPa 3.9 m/s 7.9 mm 11.5° 1009.6 hPa 10.4 m/s 0.0 mm 9.1° 1010.5 hPa 11.9 m/s 16.5 mm 7.3° 1011.9 hPa 5.4 m/s
 07:27     16:53    Daglengte: 9:26 Morgen
01:00 8.6° 1010.5 hPa 10.6 m/s 27.9 mm 8.1° 1004.5 hPa 10.0 m/s 112.8 mm 8.6° 1011.1 hPa 4.6 m/s 13.7 mm 11.0° 1008.4 hPa 9.9 m/s 0.0 mm 7.6° 1011.0 hPa 13.9 m/s 20.0 mm 6.7° 1011.4 hPa 5.8 m/s
04:00 8.5° 1009.8 hPa 10.6 m/s 29.3 mm 7.3° 1003.6 hPa 10.1 m/s 132.6 mm 8.8° 1010.0 hPa 4.1 m/s 15.9 mm 9.6° 1008.3 hPa 9.6 m/s 0.0 mm 6.4° 1010.5 hPa 13.6 m/s 14.7 mm 7.0° 1009.6 hPa 6.0 m/s
07:00 8.1° 1009.6 hPa 11.0 m/s 27.7 mm 8.3° 1003.8 hPa 8.2 m/s 134.3 mm 8.0° 1009.7 hPa 6.4 m/s 14.9 mm 9.1° 1008.2 hPa 10.1 m/s 0.0 mm 6.7° 1010.5 hPa 12.9 m/s 9.8 mm 6.6° 1009.3 hPa 6.0 m/s
10:00 8.8° 1010.7 hPa 8.6 m/s 28.6 mm 9.6° 1004.9 hPa 7.3 m/s 134.4 mm 8.0° 1011.1 hPa 4.8 m/s 15.1 mm 13.7° 1008.3 hPa 5.9 m/s 0.0 mm 7.7° 1012.0 hPa 11.0 m/s 7.9 mm 6.2° 1010.2 hPa 6.2 m/s
13:00 9.5° 1010.4 hPa 9.1 m/s 32.4 mm 12.4° 1006.2 hPa 1.6 m/s 134.4 mm 8.3° 1010.6 hPa 3.9 m/s 15.2 mm 15.6° 1007.0 hPa 13.1 m/s 0.0 mm 8.7° 1011.7 hPa 10.7 m/s 9.1 mm 7.4° 1010.4 hPa 4.5 m/s
16:00 9.8° 1010.6 hPa 8.2 m/s 30.4 mm 12.5° 1007.2 hPa 2.6 m/s 134.4 mm 8.8° 1010.7 hPa 4.1 m/s 11.9 mm 15.2° 1007.6 hPa 8.3 m/s 0.0 mm 9.0° 1011.5 hPa 11.0 m/s 8.8 mm 8.5° 1011.2 hPa 4.2 m/s
19:00 10.2° 1011.3 hPa 7.9 m/s 23.9 mm 11.5° 1007.7 hPa 2.0 m/s 134.5 mm 9.0° 1012.0 hPa 3.6 m/s 2.9 mm 14.9° 1008.6 hPa 7.2 m/s 0.0 mm 9.5° 1012.4 hPa 10.1 m/s 8.2 mm 8.6° 1012.5 hPa 4.4 m/s
22:00 10.6° 1012.0 hPa 7.0 m/s 21.9 mm 11.7° 1008.7 hPa 3.1 m/s 135.2 mm 9.2° 1012.6 hPa 3.2 m/s 1.9 mm 14.4° 1010.0 hPa 5.9 m/s 0.0 mm 10.0° 1012.7 hPa 8.8 m/s 5.4 mm 9.2° 1014.0 hPa 4.9 m/s
 07:28     16:52    Daglengte: 9:24 Woensdag 20 Nov
01:00 10.5° 1012.2 hPa 5.7 m/s 21.3 mm 11.6° 1008.8 hPa 3.2 m/s 135.9 mm 9.5° 1012.9 hPa 2.9 m/s 1.2 mm 13.5° 1010.5 hPa 2.6 m/s 0.0 mm 9.9° 1012.9 hPa 8.2 m/s 4.3 mm 8.9° 1014.1 hPa 3.5 m/s
04:00 10.1° 1012.1 hPa 7.3 m/s 9.2 mm 10.9° 1009.0 hPa 3.4 m/s 136.0 mm 9.6° 1013.1 hPa 2.7 m/s 0.3 mm 10.0° 1012.3 hPa 8.3 m/s 1.1 mm 9.2° 1013.7 hPa 3.5 m/s
07:00 9.9° 1012.4 hPa 7.2 m/s 0.0 mm 10.5° 1009.3 hPa 3.4 m/s 137.0 mm 9.7° 1013.8 hPa 2.4 m/s 0.6 mm 9.8° 1012.5 hPa 8.1 m/s 0.0 mm 9.2° 1014.4 hPa 2.9 m/s
10:00 11.0° 1013.2 hPa 7.0 m/s 0.0 mm 10.9° 1010.7 hPa 5.0 m/s 138.2 mm 10.5° 1014.2 hPa 2.5 m/s 0.6 mm 11.0° 1013.3 hPa 7.7 m/s 0.0 mm 10.3° 1015.5 hPa 2.3 m/s
13:00 12.4° 1012.7 hPa 6.2 m/s 0.0 mm 12.8° 1011.2 hPa 2.3 m/s 138.2 mm 12.1° 1013.9 hPa 2.0 m/s 0.0 mm 12.4° 1012.7 hPa 7.0 m/s 0.0 mm 12.1° 1015.1 hPa 1.7 m/s
16:00 11.8° 1012.4 hPa 6.4 m/s 0.0 mm 12.2° 1010.9 hPa 3.6 m/s 138.2 mm 12.4° 1013.8 hPa 0.9 m/s 0.0 mm 11.5° 1012.3 hPa 7.1 m/s 0.0 mm 10.6° 1014.8 hPa 0.5 m/s
19:00 10.7° 1012.6 hPa 5.9 m/s 0.0 mm 12.1° 1011.1 hPa 4.7 m/s 138.3 mm 10.6° 1014.3 hPa 1.2 m/s 0.0 mm 10.2° 1012.5 hPa 6.3 m/s 0.0 mm 10.5° 1015.5 hPa 1.5 m/s
22:00 10.6° 1013.1 hPa 4.6 m/s 0.0 mm 11.9° 1011.7 hPa 3.5 m/s 138.3 mm 9.9° 1014.5 hPa 1.5 m/s 0.5 mm 10.5° 1012.9 hPa 4.7 m/s 0.0 mm 10.1° 1016.2 hPa 1.7 m/s
 07:30     16:52    Daglengte: 9:22 Donderdag 21 Nov
01:00 10.9° 1012.7 hPa 3.5 m/s 19.3 mm 12.1° 1011.4 hPa 3.7 m/s 138.3 mm 9.5° 1014.0 hPa 1.5 m/s 0.3 mm 10.9° 1012.4 hPa 3.8 m/s 1.4 mm 10.0° 1016.0 hPa 1.9 m/s
04:00 10.7° 1011.9 hPa 2.8 m/s 46.7 mm 12.0° 1010.9 hPa 2.4 m/s 138.3 mm 9.2° 1013.8 hPa 1.4 m/s 0.0 mm 10.8° 1011.6 hPa 3.5 m/s 0.9 mm 10.0° 1015.3 hPa 1.9 m/s
07:00 10.6° 1012.4 hPa 1.7 m/s 46.5 mm 11.8° 1010.7 hPa 1.1 m/s 138.3 mm 9.0° 1013.8 hPa 1.7 m/s 0.6 mm 10.8° 1012.3 hPa 1.8 m/s 0.0 mm 9.8° 1015.2 hPa 1.6 m/s
10:00 11.1° 1012.6 hPa 2.6 m/s 148.8 mm 9.5° 1011.7 hPa 5.5 m/s 148.8 mm 11.4° 1012.7 hPa 2.1 m/s 10.7° 1015.5 hPa 2.2 m/s
13:00 12.1° 1012.8 hPa 2.5 m/s 176.5 mm 12.5° 1011.2 hPa 2.7 m/s 176.5 mm 12.0° 1013.1 hPa 2.5 m/s 10.8° 1014.8 hPa 2.1 m/s
16:00 11.6° 1013.3 hPa 2.7 m/s 118.6 mm 11.7° 1013.2 hPa 2.8 m/s 11.2° 1014.3 hPa 1.7 m/s 118.6 mm
19:00 11.4° 1013.4 hPa 2.8 m/s 119.2 mm 11.5° 1013.2 hPa 2.9 m/s 10.1° 1015.3 hPa 2.3 m/s 119.2 mm
22:00 11.2° 1013.5 hPa 3.8 m/s 119.8 mm 11.3° 1013.2 hPa 4.0 m/s 10.6° 1016.2 hPa 2.1 m/s 119.8 mm
 07:31     16:51    Daglengte: 9:20 Vrijdag 22 Nov
01:00 11.0° 1013.5 hPa 4.7 m/s 121.0 mm 11.1° 1013.2 hPa 5.0 m/s 10.4° 1016.4 hPa 1.6 m/s 121.0 mm
04:00 11.0° 1013.0 hPa 3.8 m/s 123.4 mm 11.1° 1012.8 hPa 4.0 m/s 9.9° 1015.8 hPa 2.4 m/s 123.4 mm
07:00 10.9° 1012.7 hPa 2.8 m/s 124.6 mm 11.0° 1012.4 hPa 2.9 m/s 10.1° 1016.0 hPa 1.9 m/s 124.6 mm
10:00 11.5° 1012.4 hPa 3.4 m/s 125.3 mm 11.6° 1012.0 hPa 3.5 m/s 10.8° 1016.9 hPa 2.0 m/s 125.3 mm
13:00 12.1° 1011.9 hPa 3.9 m/s 126.2 mm 12.2° 1011.5 hPa 4.1 m/s 10.8° 1015.9 hPa 2.0 m/s 126.2 mm
16:00 11.7° 1011.4 hPa 4.1 m/s 127.8 mm 11.8° 1011.0 hPa 4.3 m/s 10.5° 1014.7 hPa 2.2 m/s 127.8 mm
19:00 11.5° 1010.9 hPa 4.3 m/s 129.7 mm 11.5° 1010.6 hPa 4.5 m/s 11.0° 1014.7 hPa 1.9 m/s 129.7 mm
22:00 11.4° 1010.2 hPa 5.1 m/s 131.3 mm 11.4° 1009.9 hPa 5.3 m/s 11.0° 1014.2 hPa 2.4 m/s 131.3 mm
 07:32     16:50    Daglengte: 9:18 Zaterdag 23 Nov
01:00 11.4° 1009.4 hPa 5.9 m/s 133.2 mm 11.4° 1009.1 hPa 6.1 m/s 11.3° 1012.6 hPa 3.6 m/s 133.2 mm
04:00 11.9° 1007.8 hPa 8.1 m/s 137.7 mm 11.9° 1007.5 hPa 8.4 m/s 11.3° 1010.8 hPa 4.3 m/s 137.7 mm
07:00 12.4° 1006.2 hPa 10.2 m/s 141.8 mm 12.5° 1005.9 hPa 10.8 m/s 11.5° 1009.7 hPa 4.1 m/s 141.8 mm
10:00 13.0° 1006.3 hPa 9.8 m/s 146.1 mm 13.2° 1006.0 hPa 10.4 m/s 11.4° 1009.6 hPa 3.5 m/s 146.1 mm
13:00 13.6° 1006.3 hPa 9.3 m/s 154.2 mm 13.8° 1006.1 hPa 9.9 m/s 11.4° 1008.7 hPa 2.3 m/s 154.2 mm
16:00 13.7° 1006.9 hPa 6.7 m/s 165.1 mm 14.0° 1006.7 hPa 7.0 m/s 10.8° 1009.3 hPa 3.3 m/s 165.1 mm
19:00 13.9° 1007.6 hPa 4.1 m/s 168.7 mm 14.2° 1007.2 hPa 4.1 m/s 10.7° 1012.3 hPa 3.8 m/s 168.7 mm
22:00 13.5° 1009.0 hPa 5.7 m/s 169.4 mm 13.6° 1008.4 hPa 5.9 m/s 11.3° 1015.5 hPa 3.5 m/s 169.4 mm
 07:33     16:49    Daglengte: 9:16 Zondag 24 Nov
01:00 12.9° 1010.2 hPa 7.5 m/s 169.5 mm 13.1° 1009.6 hPa 7.8 m/s 11.1° 1016.8 hPa 4.7 m/s 169.5 mm
04:00 13.0° 1010.7 hPa 9.0 m/s 169.5 mm 13.1° 1010.0 hPa 9.4 m/s 11.0° 1017.3 hPa 4.8 m/s 169.5 mm
07:00 13.0° 1011.2 hPa 10.5 m/s 169.5 mm 13.2° 1010.5 hPa 11.0 m/s 11.0° 1018.6 hPa 4.8 m/s 169.5 mm
10:00 14.3° 1011.7 hPa 10.6 m/s 169.5 mm 14.5° 1010.9 hPa 11.2 m/s 12.3° 1020.0 hPa 4.3 m/s 169.5 mm
13:00 15.7° 1012.0 hPa 10.6 m/s 169.5 mm 15.8° 1011.3 hPa 11.3 m/s 14.1° 1019.8 hPa 3.0 m/s 169.5 mm
16:00 14.7° 1012.4 hPa 9.8 m/s 169.5 mm 14.8° 1011.8 hPa 10.3 m/s 13.1° 1019.7 hPa 3.7 m/s 169.5 mm
19:00 13.6° 1012.9 hPa 8.8 m/s 169.5 mm 13.8° 1012.2 hPa 9.3 m/s 11.3° 1020.9 hPa 3.5 m/s 169.5 mm
22:00 12.9° 1013.1 hPa 8.6 m/s 169.5 mm 13.2° 1012.3 hPa 9.1 m/s 10.7° 1022.0 hPa 3.2 m/s 169.5 mm
 07:35     16:49    Daglengte: 9:14 Maandag 25 Nov
01:00 12.3° 1013.2 hPa 8.4 m/s 169.5 mm 12.5° 1012.4 hPa 8.9 m/s 10.3° 1021.8 hPa 3.0 m/s 169.5 mm
04:00 12.2° 1012.8 hPa 7.9 m/s 169.5 mm 12.4° 1012.1 hPa 8.4 m/s 9.9° 1020.7 hPa 2.6 m/s 169.5 mm
07:00 12.1° 1012.5 hPa 7.4 m/s 169.5 mm 12.3° 1011.8 hPa 7.9 m/s 9.8° 1020.5 hPa 2.1 m/s 169.5 mm
13:00 16.9° 1012.4 hPa 5.6 m/s 169.5 mm 17.3° 1011.8 hPa 6.1 m/s 13.1° 1019.4 hPa 0.2 m/s 169.5 mm
19:00 12.7° 1013.6 hPa 7.1 m/s 169.6 mm 12.8° 1013.2 hPa 7.7 m/s 11.2° 1017.7 hPa 0.7 m/s 169.6 mm
 07:36     16:48    Daglengte: 9:12 Dinsdag 26 Nov
01:00 12.0° 1014.0 hPa 6.1 m/s 170.2 mm 12.0° 1013.8 hPa 6.5 m/s 11.9° 1016.1 hPa 2.0 m/s 170.2 mm
07:00 11.2° 1014.6 hPa 4.9 m/s 172.6 mm 11.1° 1014.7 hPa 5.2 m/s 12.1° 1013.2 hPa 1.1 m/s 172.6 mm
13:00 16.0° 1015.0 hPa 2.3 m/s 173.8 mm 16.3° 1015.4 hPa 2.4 m/s 12.9° 1010.2 hPa 1.2 m/s 173.8 mm
19:00 11.5° 1014.8 hPa 6.5 m/s 180.2 mm 11.5° 1015.6 hPa 7.0 m/s 11.9° 1006.0 hPa 1.3 m/s 180.2 mm
 07:37     16:48    Daglengte: 9:11 Woensdag 27 Nov
01:00 10.7° 1015.5 hPa 5.1 m/s 183.4 mm 10.8° 1016.7 hPa 5.3 m/s 10.2° 1002.7 hPa 2.6 m/s 183.5 mm
07:00 10.3° 1015.8 hPa 3.7 m/s 183.5 mm 10.4° 1017.1 hPa 3.7 m/s 9.6° 1001.1 hPa 3.9 m/s 183.5 mm
13:00 14.8° 1016.5 hPa 2.7 m/s 183.5 mm 15.0° 1017.9 hPa 2.7 m/s 12.8° 1001.0 hPa 2.8 m/s 183.5 mm
19:00 13.3° 1017.3 hPa 1.2 m/s 183.5 mm 13.6° 1018.5 hPa 1.3 m/s 10.4° 1004.3 hPa 0.3 m/s 183.5 mm
 07:38     16:47    Daglengte: 9:09 Donderdag 28 Nov
01:00 12.4° 1017.7 hPa 2.9 m/s 183.5 mm 12.6° 1018.8 hPa 3.0 m/s 9.9° 1006.2 hPa 1.7 m/s 183.5 mm
07:00 13.1° 1010.7 hPa 0.6 m/s 2.0 mm
13:00 14.8° 1011.5 hPa 0.5 m/s 2.1 mm
19:00 13.8° 1013.0 hPa 0.5 m/s 1.8 mm
 07:39     16:47    Daglengte: 9:08 Vrijdag 29 Nov
01:00 13.4° 1014.4 hPa 0.2 m/s 2.1 mm
07:00 13.0° 1014.9 hPa 0.3 m/s 1.3 mm
13:00 15.1° 1014.9 hPa 0.4 m/s 0.6 mm
19:00 13.6° 1015.2 hPa 0.4 m/s 0.4 mm
 07:40     16:46    Daglengte: 9:06 Zaterdag 30 Nov
01:00 12.9° 1015.9 hPa 1.3 m/s 0.8 mm
07:00 12.4° 1016.4 hPa 1.2 m/s 0.7 mm
13:00 14.8° 1016.8 hPa 0.7 m/s 0.8 mm
19:00 13.5° 1017.3 hPa 0.4 m/s 1.0 mm
 07:42     16:46    Daglengte: 9:04 Zondag 01 Dec
01:00 12.6° 1017.6 hPa 1.0 m/s 0.9 mm
07:00 11.8° 1017.7 hPa 1.3 m/s 0.5 mm
13:00 14.7° 1017.7 hPa 0.5 m/s 0.4 mm
19:00 13.0° 1017.8 hPa 0.8 m/s 0.4 mm
 07:43     16:46    Daglengte: 9:03 Maandag 02 Dec
01:00 12.3° 1017.3 hPa 0.5 m/s 0.6 mm
07:00 11.6° 1016.5 hPa 0.7 m/s 0.4 mm
13:00 14.0° 1016.0 hPa 1.3 m/s 0.3 mm
19:00 12.4° 1016.3 hPa 1.0 m/s 0.3 mm
 07:44     16:45    Daglengte: 9:01 Dinsdag 03 Dec
01:00 11.5° 1016.7 hPa 1.9 m/s 0.7 mm
07:00 10.8° 1016.9 hPa 2.0 m/s 0.6 mm
FMI Hirlam - 7.5 km EWN WRFDA - 12 km DWD ICON - 7 km GFS - 25 km Basiskaart






























































Updatetijd (Europe/Amsterdam) Resolutie Lengte Stap
FMI Hirlam 06:00, 12:00, 18:00, 00:00 7.5 km 49h 1h
EWN WRFDA 08:15, 14:15, 20:15, 02:15 12 km 73h 1h
DWD ICON 04:45, 10:45, 16:45, 22:45 7 km 75h 1h
GFS 07:45, 13:45, 19:45, 01:45 25 km 237h 3h
30+ mm
25-30 mm
20-25 mm
15-20 mm
10-15 mm
6-10 mm
4-6 mm
2-4 mm
1-2 mm
0.5-1 mm
0.2-0.5 mm
0.1-0.2 mm
30+ mm
25-30 mm
20-25 mm
15-20 mm
10-15 mm
6-10 mm
4-6 mm
2-4 mm
1-2 mm
0.5-1 mm
0.2-0.5 mm
0.1-0.2 mm
Sneeuwval
Natte sneeuw
Hagel
Vorst
30+ mm
25-30 mm
20-25 mm
15-20 mm
10-15 mm
6-10 mm
4-6 mm
2-4 mm
1-2 mm
0.5-1 mm
0.2-0.5 mm
0.1-0.2 mm
Sneeuwval
Natte sneeuw
Hagel
Vorst
Onweer
50 mm
40 mm
30 mm
26 mm
22 mm
18 mm
14 mm
10 mm
9 mm
8 mm
7 mm
6 mm
5 mm
4.5 mm
4 mm
3.5 mm
3 mm
2.5 mm
2 mm
1.5 mm
1 mm
0.8 mm
0.6 mm
0.4 mm
0.2 mm
0.05 mm
35°
30°
25°
20°
15°
10°
-5°
-10°
-15°
-20°
-25°
-30°
-35°
33> m/s
29 m/s
25 m/s
21 m/s
17 m/s
14 m/s
11 m/s
8 m/s
5 m/s
3 m/s
0 m/s
2600 J/kg
2400 J/kg
2200 J/kg
2000 J/kg
1800 J/kg
1600 J/kg
1400 J/kg
1200 J/kg
1000 J/kg
800 J/kg
600 J/kg
400 J/kg
200 J/kg
70 dBZ
65 dBZ
60 dBZ
55 dBZ
50 dBZ
45 dBZ
40 dBZ
35 dBZ
30 dBZ
25 dBZ
20 dBZ
15 dBZ
10 dBZ
5 dBZ
-1 K
-2 K
-3 K
-4 K
-5 K
-6 K
-7 K
-8 K
-9 K
950 m²/s²
900 m²/s²
850 m²/s²
800 m²/s²
750 m²/s²
700 m²/s²
650 m²/s²
600 m²/s²
550 m²/s²
500 m²/s²
450 m²/s²
400 m²/s²
350 m²/s²
300 m²/s²
250 m²/s²
200 m²/s²
150 m²/s²
100 m²/s²
46 m/s
44 m/s
42 m/s
40 m/s
38 m/s
36 m/s
34 m/s
32 m/s
30 m/s
28 m/s
26 m/s
24 m/s
22 m/s
20 m/s
16 m/s
12 m/s
8 m/s
4 m/s
30 m/s
28 m/s
26 m/s
24 m/s
22 m/s
20 m/s
18 m/s
16 m/s
14 m/s
12 m/s
10 m/s
8 m/s
6 m/s
4 m/s
2 m/s
3.0
2.8
2.6
2.4
2.2
2.0
1.8
1.6
1.4
1.2
1.0
0.8
0.6
0.4
0.2
15
14
13
12
11
10
9
8
7
6
5
4
3
2
1
90%
80%
70%
60%
50%
40%
30%
20%
10%
42
40
38
36
34
32
30
28
26
24
22
20
18
16
14
12
90+ cm
80-90 cm
70-80 cm
60-70 cm
50-60 cm
40-50 cm
30-40 cm
20-30 cm
10-20 cm
1-10 cm
Sneeuwval
Natte sneeuw
Regen
>120 mm
115 mm
110 mm
105 mm
100 mm
95 mm
90 mm
85 mm
80 mm
75 mm
70 mm
65 mm
60 mm
55 mm
50 mm
45 mm
45 mm
40 mm
35 mm
30 mm
25 mm
20 mm
15 mm
10 mm
5 mm
0.1 mm
960 hPa
880 hPa
800 hPa
720 hPa
640 hPa
560 hPa
584 gpdm
568 gpdm
552 gpdm
536 gpdm
520 gpdm
504 gpdm
488 gpdm
Extreem zwaar Noodweer Kans op onweer
15% 15% 5% 50% 15%

Dag




Kaart






35°
30°
25°
20°
15°
10°
-5°
-10°